Regional Weather Roundup
Issued by NWS State College, PA

Home | Current Version | Previous Version | Text Only | Print | Product List | Glossary Off
Versions: 1 2 3 4 5 6 7 8 9 10 11 12 13 14 15 16 17 18 19 20 21 22 23 24 25 26 27 28 29 30 31 32 33 34 35 36 37 38 39 40 41 42 43 44 45 46 47 48 49 50

000
ASUS41 KCTP 031510
RWRCTP

REGIONAL WEATHER ROUNDUP
NATIONAL WEATHER SERVICE STATE COLLEGE PA
1100 AM EDT TUE MAY 03 2016

Note: "fair" indicates few or no clouds below 12,000 feet with no
significant weather and/or obstructions to visibility.

* = STATION THAT DOES NOT REPORT PRECIPITATION /E.G. RAIN...SNOW...ETC/
    THUNDER OR FOG.

PAZ002>004-007>009-013>016-020>023-029>032-031600-
WESTERN PENNSYLVANIA

CITY           SKY/WX    TMP DP  RH WIND       PRES   REMARKS
ERIE           CLOUDY    46  42  86 CALM      29.90S
MEADVILLE      CLOUDY    44  41  89 NW6       29.88R
FRANKLIN*      CLOUDY    46  41  81 W6        29.89S
NEW CASTLE     CLOUDY    49  42  77 VRB3      29.90S
BEAVER COUNTY  PTSUNNY   48  41  76 CALM      29.88F
BUTLER*        CLOUDY    50  43  76 NW5       29.90S
PITTSBURGH INT PTSUNNY   52  43  71 N7        29.88R
PITTSBURGH     CLOUDY    51  44  77 NW3       29.87R
INDIANA*       CLOUDY    55  48  76 NW6       29.89R
LATROBE        CLOUDY    54  50  87 NW7       29.87R
WASHINGTON CO* CLOUDY    52  45  76 N5        29.88S
$$

PAZ004>006-010>012-017>019-024>028-033>037-041-042-045-046-049>053-031600-
CENTRAL PENNSYLVANIA

CITY           SKY/WX    TMP DP  RH WIND       PRES   REMARKS
BRADFORD       CLOUDY    45  43  93 E5        29.85S FOG
DUBOIS         PTSUNNY   50  46  86 NE3       29.84S
CLEARFIELD     CLOUDY    53  47  79 CALM      29.85R
JOHNSTOWN      CLOUDY    53  45  74 SW6       29.84S
ALTOONA        CLOUDY    53  52  96 NE5       29.85R FOG
STATE COLLEGE  CLOUDY    50  48  93 CALM      29.85R
WILLIAMSPORT   CLOUDY    51  45  79 CALM      29.85S
SELINSGROVE    CLOUDY    53  49  86 N6        29.86S
FT INDIANTOWN  CLOUDY    57  55  94 NE7       29.84R
CAPITAL CITY   CLOUDY    59  53  80 E9        29.83F
HARRISBURG     CLOUDY    57  52  83 E6        29.83S
YORK           CLOUDY    56  54  93 E8        29.83S
$$

PAZ038>040-043-044-047-048-054-055-060>062-067>071-031600-
EASTERN PENNSYLVANIA

CITY           SKY/WX    TMP DP  RH WIND       PRES   REMARKS
SCRANTON       CLOUDY    50  47  89 NE5       29.85S
MOUNT POCONO   LGT RAIN  48  46  93 E7        29.84S FOG
ALLENTOWN      CLOUDY    55  52  88 E10       29.85R
QUAKERTOWN*    CLOUDY    54  54 100 E3        29.85R
READING        CLOUDY    54  52  93 NE8       29.83R FOG
LANCASTER      CLOUDY    54  53  97 NE10      29.83R FOG
COATESVILLE    CLOUDY    55  55 100 NE3       29.83S FOG
POTTSTOWN      LGT RAIN  54  54 100 VRB3      29.84F FOG
BLUE BELL      CLOUDY    52  52 100 NE5       29.83R
DOYLESTOWN     CLOUDY    52  51  97 VRB5      29.83R FOG
WILLOW GROVE   NOT AVBL
NORTH PHILA    CLOUDY    56 N/A N/A E12       29.85R FOG
PHILADELPHIA   DRIZZLE   56  52  86 NE9       29.83R FOG
$$



USA.gov is the U.S. government's official web portal to all federal, state and local government web resources and services.